星链-2248 (STARLINK-2248 )

导读 | 豆包AI

STARLINK-2248是美国太空探索技术公司(SpaceX)星链(Starlink)卫星互联网项目的组网卫星,于2021年5月15日发射升空。该卫星旨在为全球提供低延迟、高速率的宽带互联网服务,是星链星座大规模部署中的一环,助力SpaceX搭建覆盖全球的卫星通信网络。

基本信息
目录编号:
48591
目录名称:
STARLINK-2248
国际标识:
2021-041AQ
轨道中心:
EARTH
卫星名称:
星链-2248
卫星全名:
星链-2248 (STARLINK-2248 )
卫星状态:
已陨落 最后检测时间 2024-05-22
发射日期:
2021-05-15 UTC
国别 :
美国 (US)
星等 :
--
轨道信息
数据来源 国际轨道数据
星历时间: 2024-05-23T03:50:26+0800
轨道信息已过期660天
半长轴: 6556.704km
偏心率: 0.0001602
轨道倾角: 53.042°
近地点辐角 291.489°
升交点赤经 171.615°
平近点角 225.744°
近地点: 177.518km
远地点: 179.62km
周期: 88.062分钟
每日圈数: 16.352134
详细信息
固有亮度:
5
最大亮度:
2.5
卫星平台:
Starlink V1.0
覆盖范围:
全球
运营商:
太空探索技术公司
运营商所在国:
美国
制造商(研发单位):
太空探索技术公司
制造商所在国:
美国
使用方式:
暂无
卫星简介
星链(Starlink)计划是由太空探索技术公司(SpaceX)提出的一个巨型低轨卫星互联网星座项目,计划在2019年至2024年间在太空搭建由约1.2万颗卫星组成的“星链”网络,其中1584颗将部署在地球上空550千米处的近地轨道,并从2020年开始工作。该卫星已陨落。